Home   Weather   Alofi   Past weeks

Flag for Niue Past Weather in Alofi, Niue — Yesterday and Last 2 Weeks

Now
75 °F

Mild.


Feels Like: 75 °F
Forecast: 71 / 80 °F
Wind: 7 mph from Southeast

Location: Alofi / Niue

Current Time: Apr 29, 2017 at 9:01:46 am

Latest Report: Apr 29, 2017 at 8:00 am


Visibility: N/A

Pressure: 29.89 "Hg

Humidity: 83%

Dew Point: 70 °F

Location of AlofiLocation

Past Weather in Alofi — Graph

°F

Alofi Temperature Yesterday

Maximum temperature yesterday: 84 °F (at 2:00 pm)
Minimum temperature yesterday: 73 °F (at 1:00 am)
Average temperature yesterday: 78 °F

High & Low Weather Summary for the Past Weeks

 TemperatureHumidityPressure
High88 °F (Apr 20, 2:00 pm)100% (Apr 16, 11:00 pm)29.98 "Hg (Apr 16, 11:00 pm)
Low68 °F (Apr 24, 5:00 am)59% (Apr 24, 1:00 pm)29.68 "Hg (Apr 14, 3:00 pm)
Average79 °F87%29.85 "Hg
* Reported Apr 14 7:00 am — Apr 29 7:00 am, Alofi, Weather by CustomWeather, © 2017

Note: Actual official high and low records may vary slightly from our data, if they occured in-between our weather recording intervals... More about our weather records

Advertising

Alofi Weather History for the Previous 24 Hours

Scroll right to see more
 ConditionsComfort  
Time TempWeatherWind HumidityBarometerVisibility
7:00 am
Sat, Apr 29
70 °FMild.2 mph88%29.86 "HgN/A
6:00 am70 °FMild.5 mph88%29.86 "HgN/A
5:00 am68 °FMild.5 mph94%29.86 "HgN/A
4:00 am68 °FMild.3 mph94%29.86 "HgN/A
3:00 am70 °FMild.3 mph88%29.86 "HgN/A
2:00 am70 °FMild.7 mph94%29.86 "HgN/A
1:00 am70 °FMild.5 mph94%29.86 "HgN/A
12:00 am72 °FMild.3 mph88%29.89 "HgN/A
11:00 pm
Fri, Apr 28
73 °FMild.6 mph83%29.89 "HgN/A
10:00 pm73 °FMild.7 mph83%29.89 "HgN/A
9:00 pm75 °FMild.9 mph78%29.89 "HgN/A
8:00 pm75 °FMild.8 mph78%29.86 "HgN/A
7:00 pm75 °FMild.8 mph78%29.86 "HgN/A
6:00 pm77 °FWarm.9 mph79%29.83 "HgN/A
5:00 pm81 °FWarm.12 mph70%29.83 "HgN/A
4:00 pm82 °FWarm.13 mph66%29.83 "HgN/A
3:00 pm82 °FWarm.14 mph70%29.83 "HgN/A
2:00 pm84 °FWarm.15 mph66%29.83 "HgN/A
1:00 pm82 °FWarm.14 mph70%29.83 "HgN/A
12:00 pm82 °FWarm.15 mph66%29.86 "HgN/A
11:00 am82 °FWarm.16 mph74%29.89 "HgN/A
10:00 am82 °FWarm.16 mph74%29.89 "HgN/A
9:00 am81 °FWarm.13 mph79%29.89 "HgN/A
Weather by CustomWeather, © 2017

See weather overviewHow to use our weather pages